Miscellaneous Local Product
Issued by NWS Hastings, NE

Home | Current Version | Previous Version | Graphics & Text | Print | Product List | Glossary On
Versions: 1 2 3 4 5 6 7 8 9 10 11 12 13 14 15 16 17 18 19 20 21 22 23 24 25 26 27 28 29 30 31 32 33 34 35 36 37 38 39 40 41 42 43 44 45 46 47 48 49 50
000
AXUS43 KGID 281302
MISGRI

GID CWA HOURLY WEATHER ROUNDUP
NATIONAL WEATHER SERVICE HASTINGS NE
800 AM CDT THU MAY 28 2015

NOTE: "FAIR" INDICATES FEW OR NO CLOUDS BELOW 12,000 FEET WITH NO
SIGNIFICANT WEATHER AND/OR OBSTRUCTIONS TO VISIBILITY.

...SOUTH CENTRAL NEBRASKA...

CITY           SKY/WX    TMP DP  RH WIND       PRES   REMARKS
GRAND ISLAND   CLOUDY    64  58  80 SE7       30.04S
HASTINGS       CLOUDY    63  57  81 SE7       30.04S
KEARNEY        CLOUDY    61  57  88 SE7       30.04S
ORD            PTSUNNY   60  57  89 SE5       30.01F
YORK           CLOUDY    64  57  77 SE13      30.06S
AURORA         CLOUDY    61  59  93 SE5       30.05S
LEXINGTON      FOG       58  57  98 CALM      30.02F VSB<1/4
HOLDREGE       CLOUDY    57  55  94 CALM      30.02S
HEBRON         CLOUDY    64  60  88 SE6       30.05S

...NEBRASKA PANHANDLE...

CITY           SKY/WX    TMP DP  RH WIND       PRES   REMARKS
CHADRON        PTSUNNY   58  54  86 SW7       29.96S
ALLIANCE       PTSUNNY   56  54  93 S5        30.00R
SCOTTSBLUFF    MOSUNNY   56  53  90 CALM      30.00F
SIDNEY         CLOUDY    56  54  93 NW9       30.02F

...WESTERN AND NORTH CENTRAL NEBRASKA...

CITY           SKY/WX    TMP DP  RH WIND       PRES   REMARKS
VALENTINE      MOSUNNY   62  55  77 S12       29.98S
AINSWORTH      MOSUNNY   60  59  97 S12       29.99F
ONEILL         MOSUNNY   62  58  87 S7        30.01F
BROKEN BOW     FOG       60  58  92 CALM      30.01F VSB 1/4
IMPERIAL       PTSUNNY   56  54  93 SE7       30.00F
NORTH PLATTE   FOG       56  56 100 E6        30.00F VSB 1/2
MCCOOK         CLOUDY    56  54  93 CALM      30.01F

...EASTERN NEBRASKA...

CITY           SKY/WX    TMP DP  RH WIND       PRES   REMARKS
NORFOLK        PTSUNNY   67  56  67 S12       30.04S
SO SIOUX CITY  PTSUNNY   64  55  72 SE8       30.06S
TEKAMAH        PTSUNNY   64  57  78 SE7       30.07S
COLUMBUS       CLOUDY    64  55  72 S14G21    30.07S
ALBION         PTSUNNY   63  56  78 SE7       30.05R
OMAHA EPPLEY   CLOUDY    66  56  70 S9        30.08R
OFFUTT AFB     CLOUDY    64  57  76 SE7       30.07S
MILLARD        CLOUDY    64  57  76 SE5       30.09R
LINCOLN        LGT RAIN  63  62  97 S8        30.06F FOG
NEBRASKA CITY  CLOUDY    63  56  79 S7        30.10F
BEATRICE       LGT RAIN  62  61  96 SE7       30.06F
FALLS CITY     NOT AVBL

...NORTHERN KANSAS...

CITY           SKY/WX    TMP DP  RH WIND       PRES   REMARKS
GOODLAND       PTSUNNY   61  58  90 SW14      30.00S
HILL CITY      CLOUDY    60  56  86 E8        30.01S
NORTON         CLOUDY    57  54  88 CALM      30.02R
PHILLIPSBURG   SUNNY     61  61 100 E3        30.02R FOG
SMITH CENTER   SUNNY     59  57  94 E8        30.03
HAYS           CLOUDY    59  52  77 E7        30.02R
RUSSELL        CLOUDY    61  59  93 E13       30.00R
CONCORDIA      CLOUDY    62  61  96 SE10      30.04R
SALINA         CLOUDY    65  62  90 E12       30.03F
TOPEKA         CLOUDY    65  64  97 E3        30.06F



USA.gov is the U.S. government's official web portal to all federal, state and local government web resources and services.